Time,TemperatureF,DewpointF,PressureIn,WindDirection,WindDirectionDegrees,WindSpeedMPH,WindSpeedGustMPH,Humidity,HourlyPrecipIn,Conditions,Clouds,dailyrainin,SoftwareType,DateUTC
2013-03-31 00:00:00,35.4,32.5,29.97,SSE,158,0.0,0.0,89,0.00,,---,0.00,VWS V14.01,2013-03-31 04:00:00,
2013-03-31 00:05:00,35.2,32.6,29.97,SSE,158,0.0,0.0,90,0.00,,---,0.00,VWS V14.01,2013-03-31 04:05:00,
2013-03-31 00:10:00,34.7,32.1,29.97,SSE,158,0.0,0.0,90,0.00,,---,0.00,VWS V14.01,2013-03-31 04:10:00,
2013-03-31 00:15:00,34.2,31.3,29.94,SSE,158,0.0,0.0,89,0.00,,---,0.00,VWS V14.01,2013-03-31 04:15:00,
2013-03-31 00:20:00,34.7,32.1,29.94,SSE,158,0.0,0.0,90,0.00,,---,0.00,VWS V14.01,2013-03-31 04:20:00,
2013-03-31 00:25:00,35.8,33.7,29.94,South,183,4.0,4.0,92,0.00,,---,0.00,VWS V14.01,2013-03-31 04:25:00,
2013-03-31 00:30:00,35.6,34.0,29.97,South,184,4.0,4.0,94,0.00,,---,0.00,VWS V14.01,2013-03-31 04:30:00,
2013-03-31 00:35:00,36.1,34.6,29.97,South,184,2.7,2.7,94,0.00,,---,0.00,VWS V14.01,2013-03-31 04:35:00,
2013-03-31 00:40:00,35.6,34.3,29.97,South,183,0.0,0.0,95,0.00,,---,0.00,VWS V14.01,2013-03-31 04:40:00,
2013-03-31 00:45:00,35.1,33.5,29.97,South,184,0.0,0.0,94,0.00,,---,0.00,VWS V14.01,2013-03-31 04:45:00,
2013-03-31 00:50:00,35.1,33.5,29.97,South,184,3.6,3.6,94,0.00,,---,0.00,VWS V14.01,2013-03-31 04:50:00,
2013-03-31 00:55:00,35.4,33.9,29.97,South,184,0.0,0.0,94,0.00,,---,0.00,VWS V14.01,2013-03-31 04:55:00,
2013-03-31 01:00:00,36.1,34.8,29.97,South,184,3.1,3.1,95,0.00,,---,0.00,VWS V14.01,2013-03-31 05:00:00,
2013-03-31 01:05:00,36.1,35.1,29.97,South,184,3.6,4.0,96,0.00,,---,0.00,VWS V14.01,2013-03-31 05:05:00,
2013-03-31 01:10:00,35.4,34.1,29.97,South,184,2.7,3.6,95,0.00,,---,0.00,VWS V14.01,2013-03-31 05:10:00,
2013-03-31 01:15:00,35.4,34.1,29.97,South,184,0.0,0.0,95,0.00,,---,0.00,VWS V14.01,2013-03-31 05:15:00,
2013-03-31 01:20:00,35.4,34.1,29.97,South,185,3.1,4.9,95,0.00,,---,0.00,VWS V14.01,2013-03-31 05:20:00,
2013-03-31 01:25:00,36.1,35.1,29.97,SSW,212,4.0,4.9,96,0.00,,---,0.00,VWS V14.01,2013-03-31 05:25:00,
2013-03-31 01:30:00,36.3,35.5,29.97,SSW,211,4.5,4.5,97,0.00,,---,0.00,VWS V14.01,2013-03-31 05:30:00,
2013-03-31 01:35:00,35.8,35.0,29.97,SSW,211,4.9,4.9,97,0.00,,---,0.00,VWS V14.01,2013-03-31 05:35:00,
2013-03-31 01:39:00,36.0,35.2,29.97,SSW,211,3.1,4.5,97,0.00,,---,0.00,VWS V14.01,2013-03-31 05:39:00,
2013-03-31 01:44:00,36.1,35.4,29.97,SSW,211,4.9,5.4,97,0.00,,---,0.00,VWS V14.01,2013-03-31 05:44:00,
2013-03-31 01:49:00,36.7,35.9,29.97,SSW,211,4.5,5.4,97,0.00,,---,0.00,VWS V14.01,2013-03-31 05:49:00,
2013-03-31 01:54:00,36.5,35.7,29.97,SW,214,5.4,5.8,97,0.00,,---,0.00,VWS V14.01,2013-03-31 05:54:00,
2013-03-31 01:59:00,37.0,36.3,29.97,SW,225,4.9,5.8,97,0.00,,---,0.00,VWS V14.01,2013-03-31 05:59:00,
2013-03-31 02:04:00,37.2,36.5,29.97,SW,219,5.8,6.3,97,0.00,,---,0.00,VWS V14.01,2013-03-31 06:04:00,
2013-03-31 02:09:00,37.2,36.5,29.97,SW,236,5.4,6.7,97,0.00,,---,0.00,VWS V14.01,2013-03-31 06:09:00,
2013-03-31 02:14:00,37.2,36.5,29.97,SW,219,5.4,6.7,97,0.00,,---,0.00,VWS V14.01,2013-03-31 06:14:00,
2013-03-31 02:19:00,36.7,35.7,29.97,SW,227,4.5,5.4,96,0.00,,---,0.00,VWS V14.01,2013-03-31 06:19:00,
2013-03-31 02:24:00,36.1,34.8,29.97,SW,225,4.0,4.9,95,0.00,,---,0.00,VWS V14.01,2013-03-31 06:24:00,
2013-03-31 02:29:00,35.6,34.0,29.97,SW,230,3.1,4.9,94,0.00,,---,0.00,VWS V14.01,2013-03-31 06:29:00,
2013-03-31 02:34:00,35.6,34.0,29.97,SW,230,3.6,4.5,94,0.00,,---,0.00,VWS V14.01,2013-03-31 06:34:00,
2013-03-31 02:39:00,35.6,34.0,29.97,SW,232,4.0,5.4,94,0.00,,---,0.00,VWS V14.01,2013-03-31 06:39:00,
2013-03-31 02:44:00,35.6,34.0,29.97,SW,232,5.4,5.4,94,0.00,,---,0.00,VWS V14.01,2013-03-31 06:44:00,
2013-03-31 02:49:00,35.8,34.5,29.97,SW,233,3.6,4.5,95,0.00,,---,0.00,VWS V14.01,2013-03-31 06:49:00,
2013-03-31 02:54:00,35.6,34.3,29.97,SW,233,0.0,0.0,95,0.00,,---,0.00,VWS V14.01,2013-03-31 06:54:00,
2013-03-31 02:59:00,34.3,32.8,29.97,SW,233,0.0,0.0,94,0.00,,---,0.00,VWS V14.01,2013-03-31 06:59:00,
2013-03-31 03:04:00,33.4,31.6,29.97,SW,233,0.0,0.0,93,0.00,,---,0.00,VWS V14.01,2013-03-31 07:04:00,
2013-03-31 03:09:00,32.9,31.1,29.97,SW,233,3.1,3.6,93,0.00,,---,0.00,VWS V14.01,2013-03-31 07:09:00,
2013-03-31 03:14:00,32.9,31.1,29.97,SW,233,0.0,0.0,93,0.00,,---,0.00,VWS V14.01,2013-03-31 07:14:00,
2013-03-31 03:19:00,32.4,30.6,29.97,SW,233,0.0,0.0,93,0.00,,---,0.00,VWS V14.01,2013-03-31 07:19:00,
2013-03-31 03:24:00,31.5,29.4,29.97,SW,233,0.0,0.0,92,0.00,,---,0.00,VWS V14.01,2013-03-31 07:24:00,
2013-03-31 03:29:00,31.1,29.3,29.94,SW,233,0.0,0.0,93,0.00,,---,0.00,VWS V14.01,2013-03-31 07:29:00,
2013-03-31 03:34:00,30.7,29.0,29.94,SW,233,0.0,0.0,93,0.00,,---,0.00,VWS V14.01,2013-03-31 07:34:00,
2013-03-31 03:39:00,30.7,29.0,29.94,SW,233,0.0,0.0,93,0.00,,---,0.00,VWS V14.01,2013-03-31 07:39:00,
2013-03-31 03:44:00,31.5,29.7,29.97,SW,233,0.0,0.0,93,0.00,,---,0.00,VWS V14.01,2013-03-31 07:44:00,
2013-03-31 03:49:00,32.2,30.6,29.97,SW,233,0.0,0.0,94,0.00,,---,0.00,VWS V14.01,2013-03-31 07:49:00,
2013-03-31 03:54:00,32.2,30.9,29.97,SW,233,0.0,0.0,95,0.00,,---,0.00,VWS V14.01,2013-03-31 07:54:00,
2013-03-31 03:59:00,32.7,31.7,29.97,SW,233,0.0,0.0,96,0.00,,---,0.00,VWS V14.01,2013-03-31 07:59:00,
2013-03-31 04:04:00,32.9,32.1,29.97,SW,233,0.0,0.0,97,0.00,,---,0.00,VWS V14.01,2013-03-31 08:04:00,
2013-03-31 04:09:00,32.5,31.8,29.97,SW,234,0.0,0.0,97,0.00,,---,0.00,VWS V14.01,2013-03-31 08:09:00,
2013-03-31 04:14:00,32.5,31.8,29.97,SW,233,0.0,0.0,97,0.00,,---,0.00,VWS V14.01,2013-03-31 08:14:00,
2013-03-31 04:19:00,32.2,31.4,29.97,SW,233,0.0,0.0,97,0.00,,---,0.00,VWS V14.01,2013-03-31 08:19:00,
2013-03-31 04:24:00,31.8,30.8,29.97,SW,233,0.0,0.0,96,0.00,,---,0.00,VWS V14.01,2013-03-31 08:24:00,
2013-03-31 04:29:00,31.8,30.8,29.97,SW,233,0.0,0.0,96,0.00,,---,0.00,VWS V14.01,2013-03-31 08:29:00,
2013-03-31 04:34:00,31.6,30.6,29.97,SW,234,0.0,0.0,96,0.00,,---,0.00,VWS V14.01,2013-03-31 08:34:00,
2013-03-31 04:39:00,31.8,30.8,29.97,SW,233,0.0,0.0,96,0.00,,---,0.00,VWS V14.01,2013-03-31 08:39:00,
2013-03-31 04:44:00,32.2,31.2,29.97,SW,233,0.0,0.0,96,0.00,,---,0.00,VWS V14.01,2013-03-31 08:44:00,
2013-03-31 04:49:00,32.0,31.0,29.97,SW,233,3.6,4.0,96,0.00,,---,0.00,VWS V14.01,2013-03-31 08:49:00,
2013-03-31 04:54:00,31.8,30.8,29.97,SW,233,3.6,4.0,96,0.00,,---,0.00,VWS V14.01,2013-03-31 08:54:00,
2013-03-31 04:59:00,32.0,31.2,29.97,SW,233,0.0,0.0,97,0.00,,---,0.00,VWS V14.01,2013-03-31 08:59:00,
2013-03-31 05:04:00,31.1,30.1,29.97,SW,233,0.0,0.0,96,0.00,,---,0.00,VWS V14.01,2013-03-31 09:04:00,
2013-03-31 05:09:00,30.4,29.6,29.97,SW,233,0.0,0.0,97,0.00,,---,0.00,VWS V14.01,2013-03-31 09:09:00,
2013-03-31 05:14:00,29.8,28.8,29.97,SW,233,0.0,0.0,96,0.00,,---,0.00,VWS V14.01,2013-03-31 09:14:00,
2013-03-31 05:19:00,30.4,29.4,29.97,SW,233,0.0,0.0,96,0.00,,---,0.00,VWS V14.01,2013-03-31 09:19:00,
2013-03-31 05:24:00,30.7,30.0,29.97,SW,233,0.0,0.0,97,0.00,,---,0.00,VWS V14.01,2013-03-31 09:24:00,
2013-03-31 05:29:00,30.4,29.6,29.97,SW,233,0.0,0.0,97,0.00,,---,0.00,VWS V14.01,2013-03-31 09:29:00,
2013-03-31 05:34:00,30.0,29.3,29.97,SW,233,0.0,0.0,97,0.00,,---,0.00,VWS V14.01,2013-03-31 09:34:00,
2013-03-31 05:39:00,30.0,29.3,29.97,SW,233,0.0,0.0,97,0.00,,---,0.00,VWS V14.01,2013-03-31 09:39:00,
2013-03-31 05:44:00,30.2,29.5,29.97,SW,233,0.0,0.0,97,0.00,,---,0.00,VWS V14.01,2013-03-31 09:44:00,
2013-03-31 05:49:00,30.7,30.0,29.97,SW,233,0.0,0.0,97,0.00,,---,0.00,VWS V14.01,2013-03-31 09:49:00,
2013-03-31 05:54:00,30.4,29.6,29.97,SW,233,0.0,0.0,97,0.00,,---,0.00,VWS V14.01,2013-03-31 09:54:00,
2013-03-31 05:59:00,30.2,29.5,29.97,SW,233,0.0,0.0,97,0.00,,---,0.00,VWS V14.01,2013-03-31 09:59:00,
2013-03-31 06:04:00,30.7,30.0,29.97,SW,233,0.0,0.0,97,0.00,,---,0.00,VWS V14.01,2013-03-31 10:04:00,
2013-03-31 06:09:00,30.4,29.6,29.97,SW,233,0.0,0.0,97,0.00,,---,0.00,VWS V14.01,2013-03-31 10:09:00,
2013-03-31 06:14:00,30.0,29.3,29.97,SW,233,0.0,0.0,97,0.00,,---,0.00,VWS V14.01,2013-03-31 10:14:00,
2013-03-31 06:19:00,29.8,29.1,29.97,SW,233,0.0,0.0,97,0.00,,---,0.00,VWS V14.01,2013-03-31 10:19:00,
2013-03-31 06:24:00,30.0,29.3,29.97,SW,233,0.0,0.0,97,0.00,,---,0.00,VWS V14.01,2013-03-31 10:24:00,
2013-03-31 06:29:00,29.8,29.1,29.97,SW,233,0.0,0.0,97,0.00,,---,0.00,VWS V14.01,2013-03-31 10:29:00,
2013-03-31 06:34:00,30.0,29.3,29.97,SW,233,0.0,0.0,97,0.00,,---,0.00,VWS V14.01,2013-03-31 10:34:00,
2013-03-31 06:39:00,30.7,30.0,29.97,SW,233,0.0,0.0,97,0.00,,---,0.00,VWS V14.01,2013-03-31 10:39:00,
2013-03-31 06:44:00,31.6,30.9,29.97,SW,233,0.0,0.0,97,0.00,,---,0.00,VWS V14.01,2013-03-31 10:44:00,
2013-03-31 06:49:00,32.5,31.5,29.97,SW,233,0.0,0.0,96,0.00,,---,0.00,VWS V14.01,2013-03-31 10:49:00,
2013-03-31 06:54:00,33.3,32.0,29.97,SW,233,0.0,0.0,95,0.00,,---,0.00,VWS V14.01,2013-03-31 10:54:00,
2013-03-31 06:59:00,34.0,32.4,29.97,SW,233,0.0,0.0,94,0.00,,---,0.00,VWS V14.01,2013-03-31 10:59:00,
2013-03-31 07:04:00,35.1,33.0,29.97,SW,233,0.0,0.0,92,0.00,,---,0.00,VWS V14.01,2013-03-31 11:04:00,
2013-03-31 07:09:00,35.1,32.4,29.97,SW,233,0.0,0.0,90,0.00,,---,0.00,VWS V14.01,2013-03-31 11:09:00,
2013-03-31 07:14:00,35.6,32.4,29.97,SW,233,0.0,0.0,88,0.00,,---,0.00,VWS V14.01,2013-03-31 11:14:00,
2013-03-31 07:19:00,35.8,32.0,29.97,SW,233,0.0,0.0,86,0.00,,---,0.00,VWS V14.01,2013-03-31 11:19:00,
2013-03-31 07:24:00,35.6,31.2,29.97,SW,233,0.0,0.0,84,0.00,,---,0.00,VWS V14.01,2013-03-31 11:24:00,
2013-03-31 07:29:00,36.1,31.2,30.00,SW,233,0.0,0.0,82,0.00,,---,0.00,VWS V14.01,2013-03-31 11:29:00,
2013-03-31 07:34:00,35.2,29.7,30.00,SW,234,0.0,0.0,80,0.00,,---,0.00,VWS V14.01,2013-03-31 11:34:00,
2013-03-31 07:39:00,35.6,30.0,30.00,SW,233,0.0,0.0,80,0.00,,---,0.00,VWS V14.01,2013-03-31 11:39:00,
2013-03-31 07:44:00,35.8,30.5,30.00,SW,233,0.0,0.0,81,0.00,,---,0.00,VWS V14.01,2013-03-31 11:44:00,
2013-03-31 07:49:00,36.3,31.4,30.00,SW,233,0.0,0.0,82,0.00,,---,0.00,VWS V14.01,2013-03-31 11:49:00,
2013-03-31 07:54:00,36.9,31.6,30.00,SW,233,0.0,0.0,81,0.00,,---,0.00,VWS V14.01,2013-03-31 11:54:00,
2013-03-31 07:59:00,37.9,33.0,30.00,SW,233,0.0,0.0,82,0.00,,---,0.00,VWS V14.01,2013-03-31 11:59:00,
2013-03-31 08:04:00,39.0,33.7,30.00,SW,227,3.6,4.5,81,0.00,,---,0.00,VWS V14.01,2013-03-31 12:04:00,
2013-03-31 08:09:00,40.1,31.1,30.00,SW,227,0.0,0.0,70,0.00,,---,0.00,VWS V14.01,2013-03-31 12:09:00,
2013-03-31 08:14:00,41.0,30.5,30.00,SW,227,0.0,0.0,66,0.00,,---,0.00,VWS V14.01,2013-03-31 12:14:00,
2013-03-31 08:19:00,41.7,30.8,30.00,SW,227,0.0,0.0,65,0.00,,---,0.00,VWS V14.01,2013-03-31 12:19:00,
2013-03-31 08:24:00,42.4,30.8,30.00,SSW,198,4.0,4.0,63,0.00,,---,0.00,VWS V14.01,2013-03-31 12:24:00,
2013-03-31 08:29:00,43.3,30.8,30.00,SSW,198,0.0,4.0,61,0.00,,---,0.00,VWS V14.01,2013-03-31 12:29:00,
2013-03-31 08:34:00,44.4,31.8,30.00,South,191,5.4,5.8,61,0.00,,---,0.00,VWS V14.01,2013-03-31 12:34:00,
2013-03-31 08:39:00,45.3,31.4,30.00,South,184,4.5,4.5,58,0.00,,---,0.00,VWS V14.01,2013-03-31 12:39:00,
2013-03-31 08:44:00,45.7,29.5,30.00,SSW,193,3.1,3.6,53,0.00,,---,0.00,VWS V14.01,2013-03-31 12:44:00,
2013-03-31 08:48:00,46.4,30.2,30.00,SSE,167,4.9,5.8,53,0.00,,---,0.00,VWS V14.01,2013-03-31 12:48:00,
2013-03-31 08:53:00,47.1,29.0,30.00,South,182,4.5,5.8,49,0.00,,---,0.00,VWS V14.01,2013-03-31 12:53:00,
2013-03-31 08:58:00,47.7,26.8,29.97,South,191,3.6,4.5,44,0.00,,---,0.00,VWS V14.01,2013-03-31 12:58:00,
2013-03-31 09:03:00,47.7,26.8,29.97,SSW,192,4.5,4.9,44,0.00,,---,0.00,VWS V14.01,2013-03-31 13:03:00,
2013-03-31 09:08:00,48.0,26.6,29.97,SSW,195,4.0,5.4,43,0.00,,---,0.00,VWS V14.01,2013-03-31 13:08:00,
2013-03-31 09:13:00,48.4,26.4,29.97,South,171,4.0,4.0,42,0.00,,---,0.00,VWS V14.01,2013-03-31 13:13:00,
2013-03-31 09:18:00,49.1,27.6,29.97,SE,144,0.0,4.0,43,0.00,,---,0.00,VWS V14.01,2013-03-31 13:18:00,
2013-03-31 09:23:00,49.5,27.3,29.97,SSE,157,4.0,5.8,42,0.00,,---,0.00,VWS V14.01,2013-03-31 13:23:00,
2013-03-31 09:28:00,50.7,28.5,29.97,SSE,158,4.0,5.4,42,0.00,,---,0.00,VWS V14.01,2013-03-31 13:28:00,
2013-03-31 09:33:00,51.3,29.5,29.97,SE,130,3.1,5.4,43,0.00,,---,0.00,VWS V14.01,2013-03-31 13:33:00,
2013-03-31 09:38:00,51.6,29.3,29.97,South,169,4.9,6.3,42,0.00,,---,0.00,VWS V14.01,2013-03-31 13:38:00,
2013-03-31 09:43:00,52.2,29.2,29.97,SE,131,4.9,6.7,41,0.00,,---,0.00,VWS V14.01,2013-03-31 13:43:00,
2013-03-31 09:48:00,52.7,28.5,29.97,SE,142,4.0,6.3,39,0.00,,---,0.00,VWS V14.01,2013-03-31 13:48:00,
2013-03-31 09:53:00,53.2,28.9,29.97,South,172,2.7,4.0,39,0.00,,---,0.00,VWS V14.01,2013-03-31 13:53:00,
2013-03-31 09:58:00,54.1,29.8,29.97,South,177,3.6,6.9,39,0.00,,---,0.00,VWS V14.01,2013-03-31 13:58:00,
2013-03-31 10:03:00,54.7,29.6,29.97,SSE,162,5.8,7.8,38,0.00,,---,0.00,VWS V14.01,2013-03-31 14:03:00,
2013-03-31 10:08:00,55.0,29.9,29.97,SE,125,4.9,6.7,38,0.00,,---,0.00,VWS V14.01,2013-03-31 14:08:00,
2013-03-31 10:13:00,55.0,29.3,29.97,SSE,168,6.3,7.8,37,0.00,,---,0.00,VWS V14.01,2013-03-31 14:13:00,
2013-03-31 10:18:00,55.4,29.6,29.97,SE,145,7.4,9.2,37,0.00,,---,0.00,VWS V14.01,2013-03-31 14:18:00,
2013-03-31 10:23:00,55.4,28.9,29.97,SE,128,7.4,9.2,36,0.00,,---,0.00,VWS V14.01,2013-03-31 14:23:00,
2013-03-31 10:28:00,55.2,28.8,29.97,South,181,6.7,6.7,36,0.00,,---,0.00,VWS V14.01,2013-03-31 14:28:00,
2013-03-31 10:33:00,55.4,28.9,29.97,SE,136,5.8,8.7,36,0.00,,---,0.00,VWS V14.01,2013-03-31 14:33:00,
2013-03-31 10:38:00,55.2,28.8,29.97,SE,134,6.3,8.3,36,0.00,,---,0.00,VWS V14.01,2013-03-31 14:38:00,
2013-03-31 10:43:00,54.9,28.4,29.97,SSE,154,7.8,8.3,36,0.00,,---,0.00,VWS V14.01,2013-03-31 14:43:00,
2013-03-31 10:48:00,54.9,29.1,29.97,SE,136,5.8,5.8,37,0.00,,---,0.00,VWS V14.01,2013-03-31 14:48:00,
2013-03-31 10:53:00,55.0,28.6,29.97,South,173,6.3,6.9,36,0.00,,---,0.00,VWS V14.01,2013-03-31 14:53:00,
2013-03-31 10:58:00,55.0,29.3,29.97,SE,145,6.7,10.5,37,0.00,,---,0.00,VWS V14.01,2013-03-31 14:58:00,
2013-03-31 11:03:00,55.2,30.1,29.97,SE,132,7.4,9.2,38,0.00,,---,0.00,VWS V14.01,2013-03-31 15:03:00,
2013-03-31 11:08:00,55.2,30.1,29.97,SSE,165,7.4,10.5,38,0.00,,---,0.00,VWS V14.01,2013-03-31 15:08:00,
2013-03-31 11:13:00,55.2,29.4,29.97,South,180,8.3,9.2,37,0.00,,---,0.00,VWS V14.01,2013-03-31 15:13:00,
2013-03-31 11:18:00,55.6,29.1,29.97,SE,129,7.8,10.5,36,0.00,,---,0.00,VWS V14.01,2013-03-31 15:18:00,
2013-03-31 11:23:00,55.9,28.7,29.97,ESE,123,11.0,12.5,35,0.00,,---,0.00,VWS V14.01,2013-03-31 15:23:00,
2013-03-31 11:28:00,55.9,28.7,29.97,SE,140,8.7,9.2,35,0.00,,---,0.00,VWS V14.01,2013-03-31 15:28:00,
2013-03-31 11:33:00,56.3,29.0,29.97,ESE,120,6.9,10.1,35,0.00,,---,0.00,VWS V14.01,2013-03-31 15:33:00,
2013-03-31 11:38:00,56.7,29.3,29.97,SSE,163,13.4,13.4,35,0.00,,---,0.00,VWS V14.01,2013-03-31 15:38:00,
2013-03-31 11:43:00,56.7,29.3,29.97,SE,141,8.3,11.6,35,0.00,,---,0.00,VWS V14.01,2013-03-31 15:43:00,
2013-03-31 11:48:00,56.7,29.3,29.97,SE,132,10.1,11.2,35,0.00,,---,0.00,VWS V14.01,2013-03-31 15:48:00,
2013-03-31 11:53:00,57.2,29.8,29.97,SSE,151,6.9,10.1,35,0.00,,---,0.00,VWS V14.01,2013-03-31 15:53:00,
2013-03-31 11:58:00,57.4,30.0,29.97,SE,133,8.3,11.0,35,0.00,,---,0.00,VWS V14.01,2013-03-31 15:58:00,
2013-03-31 12:03:00,57.0,29.7,29.97,SSE,162,6.9,11.0,35,0.00,,---,0.00,VWS V14.01,2013-03-31 16:03:00,
2013-03-31 12:08:00,57.0,30.4,29.97,SE,145,10.1,12.1,36,0.00,,---,0.00,VWS V14.01,2013-03-31 16:08:00,
2013-03-31 12:13:00,56.7,30.0,29.97,SSE,152,10.1,14.3,36,0.00,,---,0.00,VWS V14.01,2013-03-31 16:13:00,
2013-03-31 12:18:00,56.3,31.0,29.97,SE,136,11.0,13.4,38,0.00,,---,0.00,VWS V14.01,2013-03-31 16:18:00,
2013-03-31 12:23:00,55.6,31.7,29.97,SE,130,8.3,11.2,40,0.00,,---,0.00,VWS V14.01,2013-03-31 16:23:00,
2013-03-31 12:28:00,55.6,32.9,29.97,SSE,158,11.2,12.1,42,0.00,,---,0.00,VWS V14.01,2013-03-31 16:28:00,
2013-03-31 12:33:00,55.8,34.8,29.97,South,176,7.8,12.5,45,0.00,,---,0.00,VWS V14.01,2013-03-31 16:33:00,
2013-03-31 12:38:00,55.8,34.8,29.97,SSE,158,10.1,10.1,45,0.00,,---,0.00,VWS V14.01,2013-03-31 16:38:00,
2013-03-31 12:43:00,55.9,35.5,29.97,SSE,158,10.5,12.5,46,0.00,,---,0.00,VWS V14.01,2013-03-31 16:43:00,
2013-03-31 12:48:00,55.8,35.8,29.97,SSE,161,8.7,12.1,47,0.00,,---,0.00,VWS V14.01,2013-03-31 16:48:00,
2013-03-31 12:53:00,55.2,35.4,29.97,SE,131,9.2,10.5,47,0.00,,---,0.00,VWS V14.01,2013-03-31 16:53:00,
2013-03-31 12:58:00,55.4,35.5,29.97,SSE,149,8.3,11.6,47,0.00,,---,0.00,VWS V14.01,2013-03-31 16:58:00,
2013-03-31 13:03:00,55.4,36.1,29.97,SE,136,10.5,11.0,48,0.00,,---,0.00,VWS V14.01,2013-03-31 17:03:00,
2013-03-31 13:08:00,55.8,36.4,29.97,South,169,9.2,10.5,48,0.00,,---,0.00,VWS V14.01,2013-03-31 17:08:00,
2013-03-31 13:13:00,55.9,36.0,29.94,South,178,8.7,11.6,47,0.00,,---,0.00,VWS V14.01,2013-03-31 17:13:00,
2013-03-31 13:18:00,55.9,35.5,29.94,SSE,155,11.6,15.4,46,0.00,,---,0.00,VWS V14.01,2013-03-31 17:18:00,
2013-03-31 13:23:00,56.1,35.1,29.94,South,190,7.8,8.7,45,0.00,,---,0.00,VWS V14.01,2013-03-31 17:23:00,
2013-03-31 13:28:00,56.5,35.4,29.94,SE,139,11.2,11.2,45,0.00,,---,0.00,VWS V14.01,2013-03-31 17:28:00,
2013-03-31 13:33:00,57.2,36.1,29.94,SSE,166,11.0,13.4,45,0.00,,---,0.00,VWS V14.01,2013-03-31 17:33:00,
2013-03-31 13:38:00,57.2,34.3,29.94,SSE,168,8.3,11.6,42,0.00,,---,0.00,VWS V14.01,2013-03-31 17:38:00,
2013-03-31 13:43:00,57.6,33.4,29.94,SSW,200,8.3,11.2,40,0.00,,---,0.00,VWS V14.01,2013-03-31 17:43:00,
2013-03-31 13:48:00,57.7,33.0,29.94,SSE,165,8.3,15.4,39,0.00,,---,0.00,VWS V14.01,2013-03-31 17:48:00,
2013-03-31 13:53:00,57.4,32.0,29.94,South,172,8.3,11.2,38,0.00,,---,0.00,VWS V14.01,2013-03-31 17:53:00,
2013-03-31 13:58:00,57.6,32.2,29.94,South,188,10.1,11.2,38,0.00,,---,0.00,VWS V14.01,2013-03-31 17:58:00,
2013-03-31 14:03:00,57.6,32.2,29.94,SSE,156,13.4,13.4,38,0.00,,---,0.00,VWS V14.01,2013-03-31 18:03:00,
2013-03-31 14:08:00,57.6,31.5,29.94,South,184,10.1,12.5,37,0.00,,---,0.00,VWS V14.01,2013-03-31 18:08:00,
2013-03-31 14:13:00,57.9,31.8,29.94,SSE,147,13.0,13.0,37,0.00,,---,0.00,VWS V14.01,2013-03-31 18:13:00,
2013-03-31 14:18:00,57.9,31.8,29.94,SE,146,7.8,11.6,37,0.00,,---,0.00,VWS V14.01,2013-03-31 18:18:00,
2013-03-31 14:23:00,57.6,31.5,29.94,South,185,9.2,13.4,37,0.00,,---,0.00,VWS V14.01,2013-03-31 18:23:00,
2013-03-31 14:28:00,57.2,31.2,29.91,South,171,12.1,12.1,37,0.00,,---,0.00,VWS V14.01,2013-03-31 18:28:00,
2013-03-31 14:33:00,56.8,30.9,29.91,SSW,193,6.9,10.5,37,0.00,,---,0.00,VWS V14.01,2013-03-31 18:33:00,
2013-03-31 14:38:00,57.4,32.0,29.91,SE,144,12.1,13.4,38,0.00,,---,0.00,VWS V14.01,2013-03-31 18:38:00,
2013-03-31 14:43:00,56.8,32.2,29.91,SSE,154,11.2,15.2,39,0.00,,---,0.00,VWS V14.01,2013-03-31 18:43:00,
2013-03-31 14:48:00,56.7,33.2,29.91,South,175,8.7,12.5,41,0.00,,---,0.00,VWS V14.01,2013-03-31 18:48:00,
2013-03-31 14:53:00,56.7,34.4,29.91,SSE,157,7.8,15.2,43,0.00,,---,0.00,VWS V14.01,2013-03-31 18:53:00,
2013-03-31 14:58:00,55.9,34.9,29.94,SE,140,14.3,15.2,45,0.00,,---,0.00,VWS V14.01,2013-03-31 18:58:00,
2013-03-31 15:03:00,55.6,35.2,29.94,South,171,12.5,13.9,46,0.00,,---,0.00,VWS V14.01,2013-03-31 19:03:00,
2013-03-31 15:08:00,55.2,35.4,29.94,SSE,160,7.8,10.1,47,0.00,,---,0.00,VWS V14.01,2013-03-31 19:08:00,
2013-03-31 15:13:00,54.0,35.2,29.91,SSW,206,9.6,11.0,49,0.00,,---,0.00,VWS V14.01,2013-03-31 19:13:00,
2013-03-31 15:18:00,54.0,35.8,29.91,SSW,200,8.7,11.2,50,0.00,,---,0.00,VWS V14.01,2013-03-31 19:18:00,
2013-03-31 15:23:00,54.1,35.9,29.91,SW,216,12.1,12.1,50,0.00,,---,0.00,VWS V14.01,2013-03-31 19:23:00,
2013-03-31 15:28:00,53.6,35.4,29.91,South,184,11.2,11.2,50,0.00,,---,0.00,VWS V14.01,2013-03-31 19:28:00,
2013-03-31 15:33:00,53.6,35.4,29.91,SSW,192,11.6,14.3,50,0.00,,---,0.00,VWS V14.01,2013-03-31 19:33:00,
2013-03-31 15:38:00,54.0,35.8,29.91,South,186,12.5,12.5,50,0.00,,---,0.00,VWS V14.01,2013-03-31 19:38:00,
2013-03-31 15:43:00,54.0,35.2,29.91,South,184,8.3,12.5,49,0.00,,---,0.00,VWS V14.01,2013-03-31 19:43:00,
2013-03-31 15:48:00,54.1,35.4,29.91,SSW,211,11.0,11.2,49,0.00,,---,0.00,VWS V14.01,2013-03-31 19:48:00,
2013-03-31 15:53:00,54.1,34.4,29.91,South,172,9.6,13.4,47,0.00,,---,0.00,VWS V14.01,2013-03-31 19:53:00,
2013-03-31 15:58:00,53.8,34.0,29.91,SSW,197,9.6,12.5,47,0.00,,---,0.00,VWS V14.01,2013-03-31 19:58:00,
2013-03-31 16:03:00,54.0,34.2,29.91,South,170,8.3,9.2,47,0.00,,---,0.00,VWS V14.01,2013-03-31 20:03:00,
2013-03-31 16:08:00,54.0,34.2,29.91,South,169,12.1,12.1,47,0.00,,---,0.00,VWS V14.01,2013-03-31 20:08:00,
2013-03-31 16:13:00,53.4,33.7,29.91,South,169,6.9,7.4,47,0.00,,---,0.00,VWS V14.01,2013-03-31 20:13:00,
2013-03-31 16:18:00,53.6,33.9,29.91,South,179,6.9,8.7,47,0.00,,---,0.00,VWS V14.01,2013-03-31 20:18:00,
2013-03-31 16:23:00,53.6,33.3,29.91,South,188,6.7,10.5,46,0.00,,---,0.00,VWS V14.01,2013-03-31 20:23:00,
2013-03-31 16:28:00,53.2,32.5,29.88,South,187,11.2,11.6,45,0.00,,---,0.00,VWS V14.01,2013-03-31 20:28:00,
2013-03-31 16:33:00,53.1,32.3,29.88,SSE,154,5.8,6.9,45,0.00,,---,0.00,VWS V14.01,2013-03-31 20:33:00,
2013-03-31 16:38:00,53.2,32.5,29.88,South,190,7.4,7.8,45,0.00,,---,0.00,VWS V14.01,2013-03-31 20:38:00,
2013-03-31 16:43:00,53.2,32.5,29.88,SSW,197,5.4,8.7,45,0.00,,---,0.00,VWS V14.01,2013-03-31 20:43:00,
2013-03-31 16:48:00,53.2,32.5,29.88,SSE,150,6.9,6.9,45,0.00,,---,0.00,VWS V14.01,2013-03-31 20:48:00,
2013-03-31 16:53:00,53.6,33.3,29.88,SE,140,7.4,7.4,46,0.00,,---,0.00,VWS V14.01,2013-03-31 20:53:00,
2013-03-31 16:58:00,53.8,33.5,29.88,South,174,6.9,7.4,46,0.00,,---,0.00,VWS V14.01,2013-03-31 20:58:00,
2013-03-31 17:03:00,54.0,33.7,29.88,SSE,154,6.9,6.9,46,0.00,,---,0.00,VWS V14.01,2013-03-31 21:03:00,
2013-03-31 17:08:00,53.8,34.0,29.88,SE,138,6.9,9.2,47,0.00,,---,0.00,VWS V14.01,2013-03-31 21:08:00,
2013-03-31 17:13:00,53.2,33.5,29.88,SSE,152,8.7,10.5,47,0.00,,---,0.00,VWS V14.01,2013-03-31 21:13:00,
2013-03-31 17:18:00,52.9,34.3,29.88,South,177,10.5,10.5,49,0.00,,---,0.00,VWS V14.01,2013-03-31 21:18:00,
2013-03-31 17:23:00,52.0,34.9,29.88,SE,128,8.3,9.6,52,0.00,,---,0.00,VWS V14.01,2013-03-31 21:23:00,
2013-03-31 17:28:00,51.4,35.8,29.88,SSE,155,9.6,10.1,55,0.00,,---,0.00,VWS V14.01,2013-03-31 21:28:00,
2013-03-31 17:33:00,50.7,36.5,29.88,SE,126,8.3,12.1,58,0.00,,---,0.00,VWS V14.01,2013-03-31 21:33:00,
2013-03-31 17:38:00,50.0,37.1,29.88,SE,134,8.3,13.0,61,0.00,,---,0.00,VWS V14.01,2013-03-31 21:38:00,
2013-03-31 17:43:00,49.3,37.2,29.88,SSE,162,6.7,10.5,63,0.00,,---,0.00,VWS V14.01,2013-03-31 21:43:00,
2013-03-31 17:48:00,48.9,37.7,29.88,SE,143,8.7,10.5,65,0.00,,---,0.00,VWS V14.01,2013-03-31 21:48:00,
2013-03-31 17:53:00,48.6,37.7,29.88,SSE,158,12.1,12.1,66,0.00,,---,0.00,VWS V14.01,2013-03-31 21:53:00,
2013-03-31 17:58:00,48.4,37.9,29.88,SE,140,6.3,9.6,67,0.00,,---,0.00,VWS V14.01,2013-03-31 21:58:00,
2013-03-31 18:03:00,48.2,38.2,29.88,SE,140,6.3,9.6,68,0.00,,---,0.00,VWS V14.01,2013-03-31 22:03:00,
2013-03-31 18:08:00,48.0,38.3,29.88,SE,125,8.7,10.1,69,0.00,,---,0.00,VWS V14.01,2013-03-31 22:08:00,
2013-03-31 18:13:00,47.8,38.2,29.88,SE,144,4.5,7.4,69,0.00,,---,0.00,VWS V14.01,2013-03-31 22:13:00,
2013-03-31 18:18:00,47.8,38.5,29.88,South,169,4.9,8.3,70,0.00,,---,0.00,VWS V14.01,2013-03-31 22:18:00,
2013-03-31 18:23:00,47.7,38.4,29.88,SE,129,8.3,8.7,70,0.00,,---,0.00,VWS V14.01,2013-03-31 22:23:00,
2013-03-31 18:28:00,47.7,38.7,29.88,ESE,123,8.7,9.6,71,0.00,,---,0.00,VWS V14.01,2013-03-31 22:28:00,
2013-03-31 18:33:00,47.5,38.2,29.88,SE,137,9.2,11.0,70,0.00,,---,0.00,VWS V14.01,2013-03-31 22:33:00,
2013-03-31 18:38:00,47.5,38.2,29.88,SE,133,7.8,9.2,70,0.00,,---,0.00,VWS V14.01,2013-03-31 22:38:00,
2013-03-31 18:43:00,47.5,37.8,29.88,SE,134,5.4,10.1,69,0.00,,---,0.00,VWS V14.01,2013-03-31 22:43:00,
2013-03-31 18:48:00,47.7,38.0,29.88,SE,129,7.8,7.8,69,0.00,,---,0.00,VWS V14.01,2013-03-31 22:48:00,
2013-03-31 18:53:00,47.7,38.0,29.88,East,79,5.8,8.7,69,0.00,,---,0.00,VWS V14.01,2013-03-31 22:53:00,
2013-03-31 18:58:00,47.7,38.0,29.85,SE,141,11.0,11.0,69,0.00,,---,0.00,VWS V14.01,2013-03-31 22:58:00,
2013-03-31 19:03:00,47.3,38.0,29.85,ESE,117,7.8,8.7,70,0.00,,---,0.00,VWS V14.01,2013-03-31 23:03:00,
2013-03-31 19:08:00,47.3,38.0,29.85,ESE,119,6.7,6.9,70,0.00,,---,0.00,VWS V14.01,2013-03-31 23:08:00,
2013-03-31 19:13:00,47.1,37.8,29.85,East,93,6.7,7.4,70,0.00,,---,0.00,VWS V14.01,2013-03-31 23:13:00,
2013-03-31 19:18:00,46.9,37.7,29.85,East,93,9.2,10.1,70,0.00,,---,0.00,VWS V14.01,2013-03-31 23:18:00,
2013-03-31 19:23:00,46.9,38.0,29.85,East,100,7.4,9.2,71,0.00,,---,0.00,VWS V14.01,2013-03-31 23:23:00,
2013-03-31 19:28:00,46.8,37.9,29.85,SE,129,6.3,7.4,71,0.00,,---,0.00,VWS V14.01,2013-03-31 23:28:00,
2013-03-31 19:33:00,46.6,37.7,29.85,SE,141,12.1,12.1,71,0.00,,---,0.00,VWS V14.01,2013-03-31 23:33:00,
2013-03-31 19:38:00,46.6,37.7,29.85,SE,127,6.9,9.6,71,0.00,,---,0.00,VWS V14.01,2013-03-31 23:38:00,
2013-03-31 19:43:00,46.4,37.5,29.85,East,89,11.6,11.6,71,0.00,,---,0.00,VWS V14.01,2013-03-31 23:43:00,
2013-03-31 19:48:00,46.2,37.0,29.85,ESE,111,5.4,6.7,70,0.00,,---,0.00,VWS V14.01,2013-03-31 23:48:00,
2013-03-31 19:53:00,46.2,36.3,29.85,ESE,112,5.8,9.6,68,0.00,,---,0.00,VWS V14.01,2013-03-31 23:53:00,
2013-03-31 19:58:00,46.2,35.5,29.85,ESE,118,10.5,11.0,66,0.00,,---,0.00,VWS V14.01,2013-03-31 23:58:00,
2013-03-31 20:03:00,46.4,33.7,29.85,SE,140,9.2,13.4,61,0.00,,---,0.00,VWS V14.01,2013-04-01 00:03:00,
2013-03-31 20:08:00,46.6,32.6,29.85,SE,129,8.7,13.0,58,0.00,,---,0.00,VWS V14.01,2013-04-01 00:08:00,
2013-03-31 20:13:00,46.9,32.1,29.83,SSE,150,11.6,13.4,56,0.00,,---,0.00,VWS V14.01,2013-04-01 00:13:00,
2013-03-31 20:18:00,47.3,31.5,29.83,SE,137,8.3,11.6,54,0.00,,---,0.00,VWS V14.01,2013-04-01 00:18:00,
2013-03-31 20:23:00,47.5,31.2,29.83,East,91,8.3,8.3,53,0.00,,---,0.00,VWS V14.01,2013-04-01 00:23:00,
2013-03-31 20:28:00,47.5,31.7,29.83,SE,128,8.3,11.0,54,0.00,,---,0.00,VWS V14.01,2013-04-01 00:28:00,
2013-03-31 20:33:00,47.5,31.7,29.83,SE,135,12.1,12.5,54,0.00,,---,0.00,VWS V14.01,2013-04-01 00:33:00,
2013-03-31 20:38:00,47.5,32.6,29.83,ESE,111,10.1,12.5,56,0.00,,---,0.00,VWS V14.01,2013-04-01 00:38:00,
2013-03-31 20:43:00,47.3,33.7,29.83,SSE,150,8.7,14.3,59,0.00,,---,0.00,VWS V14.01,2013-04-01 00:43:00,
2013-03-31 20:48:00,47.3,34.5,29.83,East,83,11.6,12.5,61,0.00,,---,0.00,VWS V14.01,2013-04-01 00:48:00,
2013-03-31 20:53:00,47.1,34.8,29.83,ESE,119,14.8,15.2,62,0.00,,---,0.00,VWS V14.01,2013-04-01 00:53:00,
2013-03-31 20:58:00,46.9,34.6,29.80,ESE,117,7.8,11.0,62,0.00,,---,0.00,VWS V14.01,2013-04-01 00:58:00,
2013-03-31 21:03:00,46.9,35.0,29.80,ESE,115,10.5,14.3,63,0.00,,---,0.00,VWS V14.01,2013-04-01 01:03:00,
2013-03-31 21:08:00,46.9,35.0,29.80,East,88,8.7,14.3,63,0.00,,---,0.00,VWS V14.01,2013-04-01 01:08:00,
2013-03-31 21:13:00,46.9,35.4,29.80,East,96,11.2,12.1,64,0.00,,---,0.00,VWS V14.01,2013-04-01 01:13:00,
2013-03-31 21:18:00,46.6,35.5,29.80,East,92,9.2,10.1,65,0.00,,---,0.00,VWS V14.01,2013-04-01 01:18:00,
2013-03-31 21:23:00,46.6,36.2,29.80,ESE,102,11.2,12.5,67,0.00,,---,0.00,VWS V14.01,2013-04-01 01:23:00,
2013-03-31 21:28:00,46.6,37.0,29.80,ENE,77,11.2,13.0,69,0.00,,---,0.00,VWS V14.01,2013-04-01 01:28:00,
2013-03-31 21:33:00,46.6,37.0,29.80,East,83,12.1,13.0,69,0.00,,---,0.00,VWS V14.01,2013-04-01 01:33:00,
2013-03-31 21:38:00,46.6,37.0,29.80,East,87,10.5,15.2,69,0.00,,---,0.00,VWS V14.01,2013-04-01 01:38:00,
2013-03-31 21:43:00,46.6,37.0,29.77,ESE,114,11.0,15.4,69,0.00,,---,0.00,VWS V14.01,2013-04-01 01:43:00,
2013-03-31 21:48:00,46.6,37.0,29.77,East,80,7.8,11.0,69,0.00,,---,0.00,VWS V14.01,2013-04-01 01:48:00,
2013-03-31 21:53:00,46.6,37.0,29.77,ESE,123,6.9,8.7,69,0.00,,---,0.00,VWS V14.01,2013-04-01 01:53:00,
2013-03-31 21:58:00,46.8,37.1,29.77,East,98,10.1,11.0,69,0.00,,---,0.00,VWS V14.01,2013-04-01 01:58:00,
2013-03-31 22:03:00,46.8,37.1,29.77,East,99,19.9,19.9,69,0.00,,---,0.00,VWS V14.01,2013-04-01 02:03:00,
2013-03-31 22:08:00,46.8,38.2,29.77,ESE,108,8.7,13.9,72,0.00,,---,0.00,VWS V14.01,2013-04-01 02:08:00,
2013-03-31 22:13:00,46.8,38.9,29.74,ESE,117,12.1,12.1,74,0.00,,---,0.00,VWS V14.01,2013-04-01 02:13:00,
2013-03-31 22:18:00,46.8,38.6,29.74,East,92,13.4,18.6,73,0.00,,---,0.00,VWS V14.01,2013-04-01 02:18:00,
2013-03-31 22:23:00,46.9,39.1,29.74,ESE,106,9.2,12.1,74,0.00,,---,0.00,VWS V14.01,2013-04-01 02:23:00,
2013-03-31 22:28:00,46.6,39.1,29.74,ESE,117,16.8,16.8,75,0.00,,---,0.00,VWS V14.01,2013-04-01 02:28:00,
2013-03-31 22:33:00,46.4,39.3,29.74,East,98,15.2,15.2,76,0.00,,---,0.00,VWS V14.01,2013-04-01 02:33:00,
2013-03-31 22:38:00,46.2,40.1,29.74,ESE,103,14.3,14.3,79,0.00,,---,0.00,VWS V14.01,2013-04-01 02:38:00,
2013-03-31 22:43:00,46.0,39.9,29.71,ENE,59,12.1,12.5,79,0.00,,---,0.00,VWS V14.01,2013-04-01 02:43:00,
2013-03-31 22:48:00,46.0,40.5,29.71,ESE,110,15.4,17.7,81,0.00,,---,0.00,VWS V14.01,2013-04-01 02:48:00,
2013-03-31 22:53:00,46.0,40.9,29.71,East,92,7.4,14.8,82,0.00,,---,0.00,VWS V14.01,2013-04-01 02:53:00,
2013-03-31 22:58:00,46.0,41.5,29.71,East,94,11.2,16.3,84,0.00,,---,0.00,VWS V14.01,2013-04-01 02:58:00,
2013-03-31 23:03:00,46.0,41.8,29.71,East,93,9.2,9.2,85,0.00,,---,0.00,VWS V14.01,2013-04-01 03:03:00,
2013-03-31 23:08:00,46.0,41.8,29.71,ESE,110,12.1,12.1,85,0.00,,---,0.00,VWS V14.01,2013-04-01 03:08:00,
2013-03-31 23:13:00,46.0,42.1,29.68,ENE,73,9.6,9.6,86,0.00,,---,0.00,VWS V14.01,2013-04-01 03:13:00,
2013-03-31 23:18:00,46.0,42.4,29.68,ESE,112,19.0,19.0,87,0.00,,---,0.00,VWS V14.01,2013-04-01 03:18:00,
2013-03-31 23:23:00,45.9,42.2,29.68,East,84,8.3,11.0,87,0.00,,---,0.00,VWS V14.01,2013-04-01 03:23:00,
2013-03-31 23:28:00,45.9,42.5,29.68,East,92,11.6,12.1,88,0.00,,---,0.00,VWS V14.01,2013-04-01 03:28:00,
2013-03-31 23:33:00,45.9,43.1,29.68,ESE,105,20.1,20.1,90,0.00,,---,0.00,VWS V14.01,2013-04-01 03:33:00,
2013-03-31 23:38:00,46.0,43.8,29.68,East,84,14.8,19.5,92,0.00,,---,0.00,VWS V14.01,2013-04-01 03:38:00,
2013-03-31 23:43:00,46.0,44.1,29.65,East,91,15.4,17.2,93,0.00,,---,0.00,VWS V14.01,2013-04-01 03:43:00,
2013-03-31 23:48:00,46.4,44.8,29.65,East,87,13.4,19.0,94,0.00,,---,0.00,VWS V14.01,2013-04-01 03:48:00,
2013-03-31 23:53:00,46.6,45.0,29.65,ESE,103,17.2,19.5,94,0.00,,---,0.00,VWS V14.01,2013-04-01 03:53:00,
2013-03-31 23:58:00,46.8,45.4,29.65,East,100,15.9,15.9,95,0.00,,---,0.00,VWS V14.01,2013-04-01 03:58:00,